Regional Weather Roundup
Issued by NWS

Home | Current Version | Previous Version | Text Only | Print | Product List | Glossary On
Versions: 1 2 3 4 5 6 7 8 9 10 11 12 13 14 15 16 17 18 19 20 21 22 23 24 25 26 27 28 29 30 31 32 33 34 35 36 37 38 39 40 41 42 43 44 45 46 47 48 49 50
000
ASUS43 KDTX 252210
RWRMI
MICHIGAN HOURLY REGIONAL WEATHER ROUNDUP
NATIONAL WEATHER SERVICE DETROIT/PONTIAC MI
600 PM EDT FRI JUL 25 2014

NOTE: "FAIR" INDICATES FEW OR NO CLOUDS BELOW 12,000 FEET WITH NO
SIGNIFICANT WEATHER AND/OR OBSTRUCTION TO VISIBILITY.

MIZ047>049-052>055-059>063-066>070-074>076-081>083-252300-
SOUTHEAST LOWER MICHIGAN

CITY           SKY/WX    TMP DP  RH WIND       PRES   REMARKS
ADRIAN         CLOUDY    75  53  46 SW12      29.99R
ALMA           LGT RAIN  71  55  56 SW5       29.97R
ANN ARBOR      CLOUDY    75  52  44 SW8       29.97S
BAD AXE        CLOUDY    73  50  44 W6        29.96S
DETROIT CITY   PTSUNNY   78  53  41 S10       29.96F
DETROIT        CLOUDY    76  52  43 S12       29.97S
FLINT          PTSUNNY   75  54  47 W6        29.97S
GROSSE ILE     PTSUNNY   73  57  56 S10       29.96S
HILLSDALE      CLOUDY    72  55  55 W5        30.01R
HOWELL         PTSUNNY   74  51  44 SW7       29.98R

CITY           SKY/WX    TMP DP  RH WIND       PRES   REMARKS
JACKSON        CLOUDY    72  56  57 W6        29.99R
LAMBERTVILLE   PTSUNNY   75  52  43 SW8       29.99R
LANSING        CLOUDY    74  55  51 SW10      29.98R
LAPEER         NOT AVBL
MASON          CLOUDY    73  53  50 SW5       29.98S
MONROE         PTSUNNY   75  54  46 SW8       29.97R
MT. CLEMENS    CLOUDY    76  55  48 S12G17    29.94F
PONTIAC        CLOUDY    74  51  44 SW8       29.96F
PORT HOPE        N/A     71  59  65 SE5       29.93F
PORT HURON     PTSUNNY   72  57  60 S12       29.97S
TRI CITIES     CLOUDY    74  55  51 SW8       29.96F
YPSILANTI      CLOUDY    81  52  36 SW13      29.97S
$$
MIZ043>046-050>051-056>058-064>065-071>073-077>080-252300-
SOUTHWEST LOWER MICHIGAN

CITY           SKY/WX    TMP DP  RH WIND       PRES   REMARKS
BATTLE CREEK   CLOUDY    72  55  55 SW8       30.00R
BENTON HARBOR  CLOUDY    71  57  61 SW9       29.96F
BIG RAPIDS     CLOUDY    71  54  55 W7        29.97S
COLDWATER      CLOUDY    72  57  58 SW7       30.00S
HOLLAND        CLOUDY    72  58  61 SW8       29.98F
GRAND RAPIDS   CLOUDY    75  57  53 W10       29.97S
KALAMAZOO      LGT RAIN  71  56  58 SW5       29.99S
MARSHALL       LGT RAIN  69  57  66 SW8       29.99S
MUSKEGON       CLOUDY    71  57  61 SW12      29.97S
$$
MIZ016>042-252300-
NORTHERN LOWER MICHIGAN

CITY           SKY/WX    TMP DP  RH WIND       PRES   REMARKS
ALPENA         PTSUNNY   76  58  53 SW7       29.89S
BEAVER ISLAND  MOSUNNY   67  57  72 SW10      29.91S
BELLAIRE       PTSUNNY   74  55  51 SW6       29.92S
CADILLAC       CLOUDY    69  57  65 SW13      29.96S
CHARLEVOIX     CLOUDY    73  56  54 SW9       29.94S
FRANKFORT      MOCLDY    72  53  52 S13G20    29.93S
GAYLORD        CLOUDY    72  55  55 W15       29.93S
GRAYLING       PTSUNNY   74  57  54 SW10      29.95R
HARBOR SPRINGS CLOUDY    71  57  61 W8        29.91S
HOUGHTON LAKE  CLOUDY    71  58  63 W9        29.95S
MANISTEE       CLOUDY    70  55  60 S10       29.94F
OSCODA         CLOUDY    76  53  45 S12G18    29.91S
PELLSTON       MOSUNNY   74  55  51 W14G26    29.91S
TRAVERSE CITY  CLOUDY    68  57  68 S5        29.92S
$$
MIZ007>008-015-252300-
EASTERN UPPER MICHIGAN

CITY           SKY/WX    TMP DP  RH WIND       PRES   REMARKS
KINROSS        CLOUDY    72  61  68 S7        29.87F
MACKINAC ISLAN PTSUNNY   67  59  75 SW14G21   29.89S
NEWBERRY       PTSUNNY   70  58  65 SW21G26   29.86S
S. S. MARIE    CLOUDY    72  59  63 SW9       29.86R
$$
MIZ004>006-011>014-085-252300-
CENTRAL UPPER MICHIGAN

CITY           SKY/WX    TMP DP  RH WIND       PRES   REMARKS
MANISTIQUE     CLOUDY    62  58  86 SW12      29.88S
ESCANABA       CLOUDY    68  57  68 S9G17     29.85F
MENOMINEE      CLOUDY    70  57  64 SW14      29.87R
SAWYER-GWINN   CLOUDY    73  57  56 S12       29.84F
$$
MIZ001>003-009>011-084-252300-
WESTERN UPPER MICHIGAN

CITY           SKY/WX    TMP DP  RH WIND       PRES   REMARKS
IRON MOUNTAIN  CLOUDY    70  60  70 SW9       29.85S
HOUGHTON       CLOUDY    67  62  84 NW7       29.81S
COPPER HARBOR    N/A     64  60  87 E3        29.81R
$$

ABBREVIATIONS USED IN REMARKS
   TC - TEMPERATURE IN CELSIUS
  WCI - WIND CHILL INDEX
   HX - HEAT INDEX
  VSB - VISIBILITY



USA.gov is the U.S. government's official web portal to all federal, state and local government web resources and services.